Location: Newark
(47.5833°N, 8.1500°E)
Time: 17:08:45
(UTC+00:00)

Explorer 7 - Visible Passes

Search period start: 21 October 2020 00:00
Search period end: 31 October 2020 00:00
Orbit: 484 x 679 km, 50.3° (Epoch: 20 October)

Date Brightness Start Highest point End Pass type
(mag) Time Alt. Az. Time Alt. Az. Time Alt. Az.
21 Oct 7.1 18:20:11 10° W 18:24:07 58° N 18:24:53 48° NE visible
21 Oct 9.9 20:00:45 10° WNW 20:01:11 13° WNW 20:01:11 13° WNW visible
22 Oct 7.0 18:24:58 10° WNW 18:28:55 58° N 18:29:20 54° NNE visible
22 Oct 10.1 20:05:29 10° WNW 20:05:38 11° WNW 20:05:38 11° WNW visible
23 Oct 6.9 18:29:45 10° WNW 18:33:43 61° N 18:33:47 61° NNE visible
24 Oct 7.0 16:53:52 10° W 16:57:42 60° N 17:01:46 10° ENE visible
24 Oct 6.9 18:34:30 10° WNW 18:38:14 67° NNW 18:38:14 67° NNW visible
25 Oct 7.0 16:58:41 10° W 17:02:30 57° N 17:06:24 11° ENE visible
25 Oct 7.0 18:39:13 10° WNW 18:42:42 66° WNW 18:42:42 66° WNW visible
26 Oct 7.0 17:03:28 10° WNW 17:07:18 57° N 17:10:55 13° E visible
26 Oct 7.3 18:43:57 10° WNW 18:47:13 57° W 18:47:13 57° W visible
27 Oct 6.9 17:08:13 10° WNW 17:12:05 62° N 17:15:28 14° E visible
27 Oct 7.7 18:48:41 10° WNW 18:51:46 45° WSW 18:51:46 45° WSW visible
28 Oct 6.7 17:12:57 10° WNW 17:16:51 73° NNE 17:20:06 16° E visible
28 Oct 8.2 18:53:28 10° WNW 18:56:24 34° WSW 18:56:24 34° WSW visible
29 Oct 6.7 17:17:40 10° WNW 17:21:35 89° NNE 17:24:48 16° ESE visible
29 Oct 8.7 18:58:23 10° W 19:01:07 25° SW 19:01:07 25° SW visible
30 Oct 6.9 17:22:23 10° WNW 17:26:16 69° SSW 17:29:37 15° ESE visible
30 Oct 9.2 19:03:32 10° W 19:05:57 18° SW 19:05:57 18° SW visible
